| time (UTC) | temp F | wind direction | speed MPH | gust MPH | rain 1hr in | rain 24hr in | rain mn in | humidity % | barometer mb |
| 20260504081519 | 48 | 29 | 4.0 | 7.0 | 0.00 | 0.11 | 0.00 | 91 | 1015.7 |
| 20260504050155 | 45 | 36 | 2.0 | 5.0 | 0.00 | 0.33 | 0.00 | 97 | 1014.1 |
| 20260504044603 | 45 | 50 | 2.0 | 5.0 | 0.00 | 0.33 | 0.00 | 97 | 1014.2 |
| 20260504043057 | 45 | 42 | 3.0 | 9.0 | 0.00 | 0.33 | 0.00 | 97 | 1014.2 |
| 20260504041555 | 45 | 48 | 3.0 | 9.0 | 0.00 | 0.33 | 0.00 | 97 | 1014.2 |
| 20260504040104 | 45 | 37 | 4.0 | 9.0 | 0.00 | 0.35 | 0.00 | 97 | 1014.1 |
| 20260504034610 | 45 | 39 | 2.0 | 4.0 | 0.00 | 0.35 | 0.00 | 97 | 1014.1 |
| 20260504033047 | 45 | 35 | 3.0 | 5.0 | 0.00 | 0.35 | 0.00 | 97 | 1013.9 |
| 20260504031547 | 45 | 39 | 2.0 | 6.0 | 0.00 | 0.35 | 0.00 | 97 | 1013.9 |
| 20260504024549 | 45 | 40 | 2.0 | 4.0 | 0.00 | 0.35 | 0.00 | 97 | 1013.8 |
| 20260504023044 | 45 | 36 | 2.0 | 5.0 | 0.00 | 0.35 | 0.00 | 97 | 1013.7 |
| 20260504021544 | 45 | 32 | 4.0 | 9.0 | 0.00 | 0.35 | 0.00 | 97 | 1013.6 |
| 20260504020040 | 45 | 10 | 5.0 | 10.0 | 0.00 | 0.35 | 0.00 | 97 | 1013.5 |
| 20260504014538 | 45 | 46 | 5.0 | 9.0 | 0.00 | 0.35 | 0.00 | 97 | 1013.5 |
| 20260504013047 | 45 | 34 | 5.0 | 9.0 | 0.00 | 0.35 | 0.00 | 97 | 1013.5 |
| 20260504011534 | 45 | 26 | 5.0 | 10.0 | 0.00 | 0.35 | 0.00 | 97 | 1013.5 |
| 20260504010032 | 45 | 53 | 6.0 | 10.0 | 0.00 | 0.36 | 0.00 | 97 | 1013.4 |
| 20260504004532 | 45 | 29 | 4.0 | 9.0 | 0.00 | 0.36 | 0.00 | 97 | 1013.3 |
| 20260504003032 | 45 | 32 | 6.0 | 11.0 | 0.00 | 0.36 | 0.00 | 97 | 1013.3 |
| 20260504001528 | 46 | 34 | 4.0 | 12.0 | 0.00 | 0.36 | 0.00 | 97 | 1013.4 |
| 20260504000024 | 46 | 23 | 4.0 | 8.0 | 0.01 | 0.37 | 0.36 | 97 | 1013.4 |
| 20260503234524 | 46 | 34 | 5.0 | 11.0 | 0.02 | 0.37 | 0.36 | 97 | 1013.3 |
| 20260503233022 | 46 | 50 | 5.0 | 12.0 | 0.02 | 0.37 | 0.36 | 97 | 1013.3 |
| 20260503231522 | 46 | 50 | 4.0 | 11.0 | 0.02 | 0.37 | 0.36 | 97 | 1013.2 |
| 20260503230019 | 46 | 360 | 7.0 | 13.0 | 0.02 | 0.37 | 0.35 | 97 | 1013.2 |
| 20260503224517 | 46 | 15 | 8.0 | 14.0 | 0.01 | 0.36 | 0.35 | 97 | 1013.1 |
| 20260503223015 | 46 | 23 | 7.0 | 14.0 | 0.01 | 0.35 | 0.34 | 97 | 1013.0 |
| 20260503221513 | 46 | 20 | 8.0 | 12.0 | 0.01 | 0.35 | 0.34 | 97 | 1012.9 |
| 20260503220012 | 46 | 33 | 5.0 | 12.0 | 0.02 | 0.35 | 0.34 | 97 | 1012.8 |
| 20260503214510 | 46 | 20 | 6.0 | 12.0 | 0.02 | 0.35 | 0.34 | 97 | 1012.6 |
| 20260503213011 | 46 | 28 | 8.0 | 14.0 | 0.02 | 0.35 | 0.33 | 97 | 1012.6 |
| 20260503211508 | 46 | 36 | 6.0 | 12.0 | 0.02 | 0.35 | 0.33 | 97 | 1012.5 |
| 20260503210008 | 47 | 45 | 7.0 | 13.0 | 0.01 | 0.34 | 0.32 | 97 | 1012.4 |
| 20260503204504 | 47 | 35 | 7.0 | 14.0 | 0.01 | 0.34 | 0.32 | 97 | 1012.3 |
| 20260503203002 | 47 | 40 | 8.0 | 15.0 | 0.00 | 0.33 | 0.31 | 97 | 1012.1 |
| 20260503201601 | 47 | 15 | 9.0 | 15.0 | 0.00 | 0.33 | 0.31 | 97 | 1012.0 |
| 20260503200058 | 47 | 20 | 10.0 | 15.0 | 0.00 | 0.33 | 0.31 | 97 | 1011.7 |
| 20260503194553 | 47 | 52 | 10.0 | 15.0 | 0.00 | 0.33 | 0.31 | 97 | 1011.6 |
| 20260503193107 | 47 | 5 | 6.0 | 14.0 | 0.00 | 0.33 | 0.31 | 97 | 1011.4 |
| 20260503191552 | 47 | 47 | 9.0 | 18.0 | 0.00 | 0.33 | 0.31 | 97 | 1011.3 |
| 20260503190059 | 48 | 44 | 10.0 | 15.0 | 0.00 | 0.33 | 0.31 | 97 | 1011.1 |
| 20260503184544 | 48 | 25 | 7.0 | 12.0 | 0.00 | 0.33 | 0.31 | 97 | 1010.9 |
| 20260503183056 | 48 | 34 | 9.0 | 13.0 | 0.00 | 0.33 | 0.31 | 97 | 1010.7 |
| 20260503181542 | 48 | 15 | 7.0 | 11.0 | 0.00 | 0.33 | 0.31 | 97 | 1010.6 |
| 20260503180051 | 48 | 26 | 6.0 | 12.0 | 0.00 | 0.33 | 0.31 | 97 | 1010.4 |
| 20260503174539 | 48 | 46 | 9.0 | 14.0 | 0.01 | 0.33 | 0.31 | 97 | 1010.3 |
| 20260503173056 | 49 | 25 | 10.0 | 14.0 | 0.01 | 0.33 | 0.31 | 97 | 1010.2 |
| 20260503171545 | 49 | 27 | 8.0 | 13.0 | 0.01 | 0.33 | 0.31 | 97 | 1010.2 |